Regional Weather Roundup
Issued by NWS

Home | Current Version | Previous Version | Graphics & Text | Print | Product List | Glossary On
Versions: 1 2 3 4 5 6 7 8 9 10 11 12 13 14 15 16 17 18 19 20 21 22 23 24 25 26 27 28 29 30 31 32 33 34 35 36 37 38 39 40 41 42 43 44 45 46 47 48 49 50
000
ASUS43 KTOP 201259
RWRKS

WEATHER ROUNDUP FOR KANSAS
NATIONAL WEATHER SERVICE GOODLAND KS
700 AM CST FRI JAN 20 2017

NOTE:  "FAIR" INDICATES FEW OR NO CLOUDS BELOW 12,000 FEET WITH NO
SIGNIFICANT WEATHER AND/OR OBSTRUCTIONS TO VISIBILITY.

KSZ001>006-013>018-027>032-041>047-201400-
NORTHWEST KANSAS

CITY           SKY/WX    TMP DP  RH WIND       PRES   REMARKS
GOODLAND       CLOUDY    30  30 100 S7        29.45S FOG
HAYS           FOG       40  40 100 NE3       29.48F VSB 1/4
HILL CITY      FOG       38  38 100 E6        29.48F VSB 1/4
RUSSELL        FOG       41  41 100 NE3       29.47F VSB 1/2
$$

KSZ061>065-074>080-084>089-201400-
SOUTHWEST KANSAS

CITY           SKY/WX    TMP DP  RH WIND       PRES   REMARKS
DODGE CITY     CLOUDY    38  35  89 NW6       29.48S
ELKHART          N/A     29  23  78 S10         N/A  WCI  20
GARDEN CITY    CLOUDY    37  35  92 NE3       29.47F FOG
GREAT BEND     LGT RAIN  41  41 100 E3        29.50F VSB 1/4
LIBERAL        CLOUDY    37  34  87 W8        29.50R
$$

KSZ066>073-081>083-090>101-201400-
SOUTHEAST KANSAS

CITY           SKY/WX    TMP DP  RH WIND       PRES   REMARKS
CHANUTE        FOG       48  47  96 SE6       29.55R VSB 1
COFFEYVILLE    CLOUDY    49  47  93 E7        29.54S
HUTCHINSON     FOG       44  43  96 NE6       29.47F VSB 1/2
MEDICINE LODGE   N/A     39  39 100 N5        29.49R
NEWTON         FOG       44  44 100 E8        29.47F VSB 1/4
PARSONS        CLOUDY    49  48  97 SE3       29.55S FOG
WICHITA INTL   CLOUDY    47  46  97 E6        29.47R FOG
WICHITA JABRA  FOG       45  45 100 E7        29.47F VSB 3/4
WICHITA MCCONL CLOUDY    46  46 100 E7        29.46F
WINFIELD       CLOUDY    47  46  97 E8        29.48F
$$

KSZ007>012-019>026-033>040-048>060-102>105-201400-
NORTHEAST KANSAS

CITY           SKY/WX    TMP DP  RH WIND       PRES   REMARKS
CONCORDIA      CLOUDY    40  40 100 SE6       29.53R FOG
EMPORIA        FOG       44  44 100 SE6       29.55R VSB 1/2
LAWRENCE       FOG       44  44 100 E6        29.56S VSB 1/4
MANHATTAN      CLOUDY    44  44 100 NE3       29.54S
OLATHE IND     CLOUDY    45  45 100 SE3       29.56F FOG
OLATHE EXE     FOG       44  44 100 SE6       29.56S VSB 1/2
SALINA           N/A    N/A N/A N/A MISG        N/A
TOPEKA BILLARD CLOUDY    45  43  93 SE3       29.56R FOG
TOPEKA FORBES  FOG       46  44  93 SE3       29.55S VSB 1/4
$$



USA.gov is the U.S. government's official web portal to all federal, state and local government web resources and services.